This demonstration page uses our WeatherBlox Daily Observations layout. Learn more.

Left ArrowRight Arrow

41.86663, -103.66717

Hourly Observations for August 20, 2020

Temp ( °F °C ) Dew Point ( °F °C ) Humidity (%) Winds ( mph kmh ) Pressure ( in mb ) Visibility ( mi km ) Precip ( " mm )
12:53 am 00:53 Clear 68 20 57 13.9 68 68 N N/A 29.87 1012 10 16 N/A
1:53 am 01:53 Clear 64 17.8 58 14.4 81 81 ESE 3 6 29.86 1011 10 16 N/A
2:53 am 02:53 Clear 65 18.3 57 13.9 76 76 N N/A 29.86 1011 10 16 N/A
3:53 am 03:53 Clear 63 17.2 57 13.9 81 81 E 6 9 29.83 1010 10 16 N/A
4:53 am 04:53 Clear 62 16.7 56 13.3 80 80 N N/A 29.82 1010 10 16 N/A
5:53 am 05:53 Clear 62 16.7 56 13.3 80 80 undefined N/A 29.83 1010 10 16 N/A
6:53 am 06:53 Sunny 63 17.2 56 13.3 78 78 NNW 5 7 29.85 1011 10 16 N/A
7:53 am 07:53 Sunny 64 17.8 57 13.9 78 78 undefined N/A 29.87 1011 10 16 N/A
8:53 am 08:53 Sunny 71 21.7 57 13.9 61 61 WNW 5 7 29.85 1011 10 16 N/A
9:53 am 09:53 Sunny 77 25 57 13.9 50 50 W 7 11 29.83 1010 10 16 N/A
10:53 am 10:53 Sunny 82 27.8 57 13.9 42 42 W 7 11 29.83 1010 10 16 N/A
11:53 am 11:53 Sunny 88 31.1 55 12.8 33 33 WSW 6 9 29.80 1009 10 16 N/A
12:53 pm 12:53 Sunny 91 32.8 52 11.1 26 26 undefined N/A 29.76 1008 10 16 N/A
1:53 pm 13:53 Sunny 93 33.9 49 9.4 22 22 VRB 3 6 29.75 1008 10 16 N/A
2:53 pm 14:53 Sunny 92 33.3 50 10 24 24 VRB 5 7 29.72 1007 10 16 N/A
3:53 pm 15:53 Sunny 95 35 46 7.8 19 19 W 6 9 29.70 1006 10 16 N/A
4:53 pm 16:53 Sunny 96 35.6 45 7.2 17 17 W 8 13 29.68 1005 10 16 N/A
5:53 pm 17:53 Sunny 89 31.7 55 12.8 31 31 E 3 6 29.69 1006 10 16 N/A
6:53 pm 18:53 Sunny 84 28.9 56 13.3 38 38 E 7 11 29.69 1006 10 16 N/A
7:53 pm 19:53 Clear 79 26.1 56 13.3 45 45 ENE 7 11 29.72 1007 10 16 N/A
8:53 pm 20:53 Clear 77 25 56 13.3 48 48 SSE 7 11 29.75 1007 10 16 N/A
9:53 pm 21:53 Clear 76 24.4 57 13.9 52 52 SW 9 15 29.75 1007 10 16 N/A
10:53 pm 22:53 Clear 79 26.1 50 10 36 36 WNW 9 15 29.72 1007 10 16 N/A
11:53 pm 23:53 Clear 72 22.2 53 11.7 52 52 NW 6 9 29.72 1007 9 14 N/A

Powered by AerisWeather